GW4909 Weather Reports


Display with metric or nautical units.
time (UTC)temp
F
wind
direction
speed
MPH
gust
MPH
rain 1hr
in
rain 24hr
in
rain mn
in
humidity
%
barometer
mb
20260906101335 74 237 1.0 1.0 0.00 0.00 0.00 95 1012.4
20260906100831 74 232 0.0 0.0 0.00 0.00 0.00 95 1012.4
20260906100329 74 231 0.0 0.0 0.00 0.00 0.00 95 1012.6
20260906095825 74 234 0.0 0.0 0.00 0.00 0.00 96 1012.5
20260906095320 74 234 0.0 0.0 0.00 0.00 0.00 96 1012.6
20260906094819 74 236 0.0 0.0 0.00 0.00 0.00 96 1012.6
20260906094315 74 238 0.0 0.0 0.00 0.00 0.00 96 1012.4
20260906093811 74 238 0.0 0.0 0.00 0.00 0.00 96 1012.6
20260906093307 74 244 0.0 0.0 0.00 0.00 0.00 96 1012.6
20260906092802 74 229 0.0 0.0 0.00 0.00 0.00 96 1012.8
20260906092301 74 236 0.0 0.0 0.00 0.00 0.00 96 1012.8
20260906091757 74 247 0.0 0.0 0.00 0.00 0.00 95 1012.7
20260906091253 74 242 0.0 0.0 0.00 0.00 0.00 95 1012.7
20260906090750 74 238 0.0 0.0 0.00 0.00 0.00 95 1012.7
20260906090248 74 238 0.0 0.0 0.00 0.00 0.00 95 1012.7
20260906085748 74 231 0.0 0.0 0.00 0.00 0.00 95 1012.8
20260906085247 74 230 0.0 0.0 0.00 0.00 0.00 95 1012.7
20260906084743 74 231 0.0 0.0 0.00 0.00 0.00 95 1012.8
20260906084242 74 226 0.0 0.0 0.00 0.00 0.00 95 1012.8
20260906083737 74 214 1.0 1.0 0.00 0.00 0.00 95 1012.8
20260906083232 74 250 0.0 0.0 0.00 0.00 0.00 95 1012.6
20260906082727 74 341 1.0 1.0 0.00 0.00 0.00 95 1012.5
20260906082222 74 305 0.0 0.0 0.00 0.00 0.00 95 1012.6
20260906081719 74 217 0.0 1.0 0.00 0.00 0.00 95 1012.6
20260906081213 73 256 0.0 0.0 0.00 0.00 0.00 95 1012.5
20260906080710 73 262 0.0 0.0 0.00 0.00 0.00 95 1012.4
20260906080206 73 240 0.0 0.0 0.00 0.00 0.00 95 1012.4
20260906075706 73 184 1.0 1.0 0.00 0.00 0.00 95 1012.3
20260906075200 73 264 0.0 0.0 0.00 0.00 0.00 94 1012.4
20260906074655 73 264 0.0 0.0 0.00 0.00 0.00 94 1012.5
20260906074154 73 264 0.0 0.0 0.00 0.00 0.00 94 1012.6
20260906073650 73 264 0.0 0.0 0.00 0.00 0.00 94 1012.6
20260906073145 73 256 0.0 0.0 0.00 0.00 0.00 94 1012.4
20260906072640 73 222 0.0 0.0 0.00 0.00 0.00 94 1012.5
20260906072136 73 238 0.0 0.0 0.00 0.00 0.00 94 1012.5
20260906071632 73 251 0.0 0.0 0.00 0.00 0.00 94 1012.5
20260906071126 73 213 1.0 1.0 0.00 0.00 0.00 94 1012.5
20260906070623 73 259 0.0 0.0 0.00 0.00 0.00 94 1012.5
20260906070119 73 262 0.0 0.0 0.00 0.00 0.00 94 1012.4
20260906065618 73 257 0.0 0.0 0.00 0.00 0.00 94 1012.5
20260906065113 73 276 0.0 0.0 0.00 0.00 0.00 94 1012.7
20260906064609 73 284 0.0 0.0 0.00 0.00 0.00 93 1012.4
20260906064104 74 263 0.0 0.0 0.00 0.00 0.00 93 1012.5
20260906063559 74 260 0.0 0.0 0.00 0.00 0.00 93 1012.6
20260906063055 74 261 0.0 0.0 0.00 0.00 0.00 93 1012.4
20260906062551 74 265 0.0 0.0 0.00 0.00 0.00 93 1012.4
20260906062049 74 265 0.0 0.0 0.00 0.00 0.00 93 1012.5
20260906061546 74 274 0.0 0.0 0.00 0.00 0.00 92 1012.8
20260906061045 74 269 0.0 0.0 0.00 0.00 0.00 92 1012.7
20260906060542 74 261 0.0 0.0 0.00 0.00 0.00 92 1012.9
20260906060039 74 267 0.0 0.0 0.00 0.00 0.00 92 1012.8
20260906055535 74 271 0.0 0.0 0.00 0.00 0.00 92 1012.7
20260906055030 74 263 0.0 0.0 0.00 0.00 0.00 92 1012.9
20260906054530 74 262 0.0 0.0 0.00 0.00 0.00 92 1012.8
20260906054025 74 263 0.0 0.0 0.00 0.00 0.00 92 1012.8
20260906053521 75 261 0.0 0.0 0.00 0.00 0.00 92 1012.7
20260906053017 75 259 0.0 0.0 0.00 0.00 0.00 92 1013.0
20260906052512 75 261 0.0 0.0 0.00 0.00 0.00 91 1012.9
20260906052009 75 261 0.0 0.0 0.00 0.00 0.00 91 1012.9
20260906051504 75 260 0.0 0.0 0.00 0.00 0.00 90 1012.9
20260906051000 75 264 0.0 0.0 0.00 0.00 0.00 90 1012.9
20260906050459 75 259 0.0 0.0 0.00 0.00 0.00 90 1012.9
20260906045954 75 267 0.0 0.0 0.00 0.00 0.00 90 1012.9
20260906045452 75 261 0.0 0.0 0.00 0.00 0.00 90 1013.0
20260906044948 75 267 0.0 0.0 0.00 0.00 0.00 90 1013.2
20260906044443 75 270 0.0 0.0 0.00 0.00 0.00 90 1013.1
20260906043939 76 260 0.0 0.0 0.00 0.00 0.00 90 1013.1
20260906043435 76 258 0.0 0.0 0.00 0.00 0.00 90 1013.2
20260906042930 75 269 0.0 0.0 0.00 0.00 0.00 90 1013.3
20260906042430 76 275 0.0 0.0 0.00 0.00 0.00 90 1013.3
20260906041924 76 279 0.0 0.0 0.00 0.00 0.00 90 1013.5
20260906041420 76 265 0.0 0.0 0.00 0.00 0.00 90 1013.2
20260906040915 76 257 0.0 0.0 0.00 0.00 0.00 90 1013.4
20260906040410 76 261 0.0 0.0 0.00 0.00 0.00 89 1013.3
20260906035905 76 263 0.0 0.0 0.00 0.00 0.00 89 1013.3
20260906035400 76 274 0.0 0.0 0.00 0.00 0.00 89 1013.5
20260906034855 76 273 0.0 0.0 0.00 0.00 0.00 88 1013.6
20260906034350 76 259 0.0 0.0 0.00 0.00 0.00 88 1013.5
20260906033846 77 268 0.0 0.0 0.00 0.00 0.00 88 1013.5
20260906033345 77 263 0.0 0.0 0.00 0.00 0.00 87 1013.4
20260906032842 77 256 0.0 0.0 0.00 0.00 0.00 87 1013.5
20260906032337 77 259 0.0 0.0 0.00 0.00 0.00 88 1013.3
20260906031832 77 259 0.0 0.0 0.00 0.00 0.00 86 1013.4
20260906031328 77 256 0.0 0.0 0.00 0.00 0.00 86 1013.5
20260906030828 78 260 0.0 0.0 0.00 0.00 0.00 87 1013.2
20260906030323 78 257 0.0 0.0 0.00 0.00 0.00 86 1013.2
20260906025822 78 256 0.0 0.0 0.00 0.00 0.00 86 1013.1
20260906025316 78 255 0.0 0.0 0.00 0.00 0.00 86 1012.9
20260906024816 78 267 0.0 0.0 0.00 0.00 0.00 85 1012.7
20260906024310 78 257 0.0 0.0 0.00 0.00 0.00 84 1012.9
20260906023805 79 256 0.0 0.0 0.00 0.00 0.00 84 1013.0
20260906023300 79 268 0.0 0.0 0.00 0.00 0.00 83 1013.0
20260906022755 79 261 0.0 0.0 0.00 0.00 0.00 82 1013.1
20260906022250 79 259 0.0 0.0 0.00 0.00 0.00 83 1013.1
20260906021747 79 270 0.0 0.0 0.00 0.00 0.00 83 1013.1
20260906021246 79 266 0.0 0.0 0.00 0.00 0.00 83 1013.1
20260906020741 79 279 0.0 0.0 0.00 0.00 0.00 84 1013.0
20260906020235 79 258 0.0 0.0 0.00 0.00 0.00 82 1013.0
20260906015730 79 254 0.0 0.0 0.00 0.00 0.00 83 1012.9
20260906015228 80 253 0.0 0.0 0.00 0.00 0.00 84 1012.8
20260906014723 79 258 0.0 0.0 0.00 0.00 0.00 84 1012.9
20260906014218 79 272 0.0 0.0 0.00 0.00 0.00 83 1013.1
20260906013709 80 272 0.0 0.0 0.00 0.00 0.00 85 1012.8
20260906013209 80 262 0.0 0.0 0.00 0.00 0.00 84 1012.7
20260906012704 80 267 0.0 0.0 0.00 0.00 0.00 82 1012.6
20260906012203 80 261 0.0 0.0 0.00 0.00 0.00 84 1012.5
20260906011659 80 281 0.0 0.0 0.00 0.00 0.00 84 1012.5
20260906011153 80 255 0.0 0.0 0.00 0.00 0.00 84 1012.3
20260906010649 80 253 0.0 0.0 0.00 0.00 0.00 83 1012.3
20260906010145 80 269 0.0 0.0 0.00 0.00 0.00 83 1012.2
20260906005644 80 273 0.0 0.0 0.00 0.00 0.00 83 1012.0
20260906005144 80 273 0.0 0.0 0.00 0.00 0.00 83 1011.7
20260906004643 80 265 0.0 0.0 0.00 0.00 0.00 82 1011.4
20260906004138 80 302 0.0 0.0 0.00 0.00 0.00 82 1011.1
20260906003633 80 16 0.0 1.0 0.00 0.00 0.00 82 1011.1
20260906003129 80 270 0.0 0.0 0.00 0.00 0.00 81 1011.0
20260906002624 80 184 1.0 1.0 0.00 0.00 0.00 80 1011.2
20260906002119 81 247 0.0 0.0 0.00 0.00 0.00 79 1011.2
20260906001615 82 255 0.0 0.0 0.00 0.00 0.00 77 1011.4
20260906001114 82 248 0.0 0.0 0.00 0.00 0.00 76 1011.3
20260906000611 83 267 0.0 0.0 0.00 0.00 0.00 74 1011.5
20260906000106 83 284 1.0 1.0 0.00 0.00 0.00 73 1011.6
20260905235604 83 42 1.0 1.0 0.00 0.00 0.00 73 1011.9
20260905235100 83 310 1.0 1.0 0.00 0.00 0.00 72 1011.5
20260905234555 83 345 2.0 3.0 0.00 0.00 0.00 72 1011.8
20260905234050 84 322 0.0 1.0 0.00 0.00 0.00 71 1011.5
20260905233545 84 355 1.0 1.0 0.00 0.00 0.00 71 1011.6
20260905233045 84 6 2.0 2.0 0.00 0.00 0.00 69 1011.4
20260905232540 84 354 1.0 2.0 0.00 0.00 0.00 68 1011.4
20260905232036 84 350 0.0 0.0 0.00 0.00 0.00 67 1011.1
20260905231531 84 300 1.0 1.0 0.00 0.00 0.00 67 1011.2
20260905231027 84 282 0.0 1.0 0.00 0.00 0.00 68 1011.0
20260905230526 84 300 1.0 1.0 0.00 0.00 0.00 66 1010.6
20260905230025 85 44 4.0 4.0 0.00 0.00 0.00 64 1010.7
20260905225520 85 30 4.0 7.0 0.00 0.00 0.00 65 1011.0
20260905225015 85 6 5.0 6.0 0.00 0.00 0.00 68 1010.9
20260905224515 85 344 2.0 2.0 0.00 0.00 0.00 69 1011.0
20260905224014 86 351 3.0 3.0 0.00 0.00 0.00 70 1011.1
20260905223513 87 13 4.0 6.0 0.00 0.00 0.00 69 1011.1
20260905223008 90 10 4.0 9.0 0.00 0.00 0.00 65 1011.2
20260905222507 91 264 1.0 1.0 0.00 0.00 0.00 61 1011.3
20260905222003 95 24 8.0 9.0 0.00 0.00 0.00 52 1011.1
20260905221459 98 318 0.0 1.0 0.00 0.00 0.00 48 1010.7
20260905220955 97 279 1.0 2.0 0.00 0.00 0.00 47 1011.0
20260905220451 96 2 4.0 7.0 0.00 0.00 0.00 47 1011.0
20260905215949 97 351 4.0 6.0 0.00 0.00 0.00 48 1011.1
20260905215446 98 11 2.0 2.0 0.00 0.00 0.00 51 1010.7
20260905214942 97 347 4.0 4.0 0.00 0.00 0.00 47 1010.5
20260905214437 97 330 1.0 1.0 0.00 0.00 0.00 49 1011.0
20260905213937 100 1 4.0 6.0 0.00 0.00 0.00 47 1011.0
20260905213434 101 10 2.0 2.0 0.00 0.00 0.00 47 1010.7
20260905212929 101 272 0.0 1.0 0.00 0.00 0.00 44 1011.0
20260905212423 102 313 0.0 0.0 0.00 0.00 0.00 41 1010.7
20260905211917 101 298 1.0 1.0 0.00 0.00 0.00 40 1010.9
20260905211413 100 287 2.0 2.0 0.00 0.00 0.00 45 1010.9
20260905210909 101 276 1.0 1.0 0.00 0.00 0.00 47 1011.0
20260905210408 99 303 0.0 0.0 0.00 0.00 0.00 45 1011.1
20260905205908 98 53 2.0 2.0 0.00 0.00 0.00 45 1010.7
20260905205403 99 311 1.0 1.0 0.00 0.00 0.00 46 1010.7
20260905204902 100 53 1.0 2.0 0.00 0.00 0.00 42 1011.0
20260905204358 99 23 1.0 1.0 0.00 0.00 0.00 45 1011.1
20260905203856 99 356 2.0 3.0 0.00 0.00 0.00 48 1011.1
20260905203352 100 34 2.0 3.0 0.00 0.00 0.00 45 1011.3
20260905202842 100 323 1.0 2.0 0.00 0.00 0.00 45 1011.2
20260905202337 100 339 1.0 1.0 0.00 0.00 0.00 45 1011.4
20260905201833 100 238 0.0 0.0 0.00 0.00 0.00 44 1011.6
20260905201328 100 265 0.0 0.0 0.00 0.00 0.00 46 1011.7
20260905200828 99 264 0.0 1.0 0.00 0.00 0.00 43 1011.7
20260905200325 100 281 3.0 3.0 0.00 0.00 0.00 45 1011.6
20260905195821 99 236 1.0 1.0 0.00 0.00 0.00 47 1011.8
20260905195317 99 2 1.0 1.0 0.00 0.00 0.00 49 1011.7
20260905194813 99 342 1.0 2.0 0.00 0.00 0.00 46 1011.8
20260905194307 101 256 2.0 3.0 0.00 0.00 0.00 46 1011.8
20260905193806 100 236 0.0 1.0 0.00 0.00 0.00 47 1011.8
20260905193302 100 308 2.0 3.0 0.00 0.00 0.00 48 1011.8
20260905192757 99 333 2.0 2.0 0.00 0.00 0.00 50 1011.8
20260905192253 99 297 1.0 1.0 0.00 0.00 0.00 47 1012.2
20260905191752 100 220 2.0 3.0 0.00 0.00 0.00 46 1012.2
20260905191250 99 192 2.0 2.0 0.00 0.00 0.00 44 1012.5
20260905190749 99 210 2.0 4.0 0.00 0.00 0.00 49 1012.3
20260905190248 98 348 3.0 3.0 0.00 0.00 0.00 47 1012.5
20260905185747 98 292 1.0 1.0 0.00 0.00 0.00 49 1012.5
20260905185243 100 325 2.0 3.0 0.00 0.00 0.00 47 1012.6
20260905184742 100 204 1.0 2.0 0.00 0.00 0.00 47 1012.6
20260905184241 100 23 2.0 2.0 0.00 0.00 0.00 48 1012.6
20260905183740 99 225 0.0 1.0 0.00 0.00 0.00 49 1012.6
20260905183237 98 286 0.0 1.0 0.00 0.00 0.00 51 1012.8
20260905182736 98 18 2.0 2.0 0.00 0.00 0.00 51 1012.9
20260905182236 98 205 1.0 2.0 0.00 0.00 0.00 50 1013.1
20260905181731 99 210 1.0 2.0 0.00 0.00 0.00 48 1013.1
20260905181230 99 298 1.0 1.0 0.00 0.00 0.00 49 1013.3
20260905180725 98 293 0.0 1.0 0.00 0.00 0.00 50 1013.3
20260905180221 98 310 1.0 1.0 0.00 0.00 0.00 51 1013.4
20260905175720 97 355 3.0 3.0 0.00 0.00 0.00 52 1013.5
20260905175215 96 209 1.0 2.0 0.00 0.00 0.00 55 1013.4
20260905174710 96 218 1.0 1.0 0.00 0.00 0.00 54 1013.5
20260905174206 97 48 3.0 3.0 0.00 0.00 0.00 53 1013.6
20260905173702 96 54 1.0 2.0 0.00 0.00 0.00 55 1013.6
20260905173157 96 57 1.0 2.0 0.00 0.00 0.00 56 1013.7
20260905172657 97 22 1.0 2.0 0.00 0.00 0.00 54 1013.7
20260905172151 97 32 2.0 2.0 0.00 0.00 0.00 54 1013.9
20260905171647 97 197 3.0 4.0 0.00 0.00 0.00 54 1013.9
20260905171143 97 249 1.0 1.0 0.00 0.00 0.00 56 1013.7
20260905170640 96 128 1.0 1.0 0.00 0.00 0.00 56 1013.9
20260905170135 96 278 0.0 0.0 0.00 0.00 0.00 55 1013.9
20260905165629 96 203 0.0 1.0 0.00 0.00 0.00 53 1014.0
20260905165124 95 359 0.0 1.0 0.00 0.00 0.00 59 1014.0
20260905164625 95 37 1.0 2.0 0.00 0.00 0.00 58 1014.2
20260905164124 94 244 0.0 0.0 0.00 0.00 0.00 60 1014.2
20260905163620 94 77 2.0 2.0 0.00 0.00 0.00 61 1014.2
20260905163116 93 71 1.0 2.0 0.00 0.00 0.00 67 1014.5
20260905162612 93 31 3.0 3.0 0.00 0.00 0.00 65 1014.4
20260905162111 94 350 2.0 3.0 0.00 0.00 0.00 65 1014.5
20260905161611 94 96 0.0 1.0 0.00 0.00 0.00 65 1014.5
20260905161110 93 23 2.0 2.0 0.00 0.00 0.00 66 1014.5
20260905160609 93 348 2.0 2.0 0.00 0.00 0.00 64 1014.6
20260905160108 91 67 2.0 2.0 0.00 0.00 0.00 66 1014.7
20260905155604 93 258 0.0 1.0 0.00 0.00 0.00 65 1014.7
20260905155102 92 268 1.0 1.0 0.00 0.00 0.00 68 1014.7
20260905154557 92 326 3.0 3.0 0.00 0.00 0.00 67 1014.8
20260905154052 93 234 0.0 1.0 0.00 0.00 0.00 66 1014.6
20260905153548 91 167 1.0 2.0 0.00 0.00 0.00 68 1014.8
20260905153048 93 14 0.0 0.0 0.00 0.00 0.00 67 1014.8
20260905152543 92 240 0.0 0.0 0.00 0.00 0.00 66 1014.9
20260905152038 91 194 0.0 1.0 0.00 0.00 0.00 67 1014.9
20260905151527 92 252 1.0 1.0 0.00 0.00 0.00 69 1015.0
20260905151022 91 255 0.0 0.0 0.00 0.00 0.00 68 1015.0
20260905150518 90 249 1.0 2.0 0.00 0.00 0.00 69 1015.0
20260905150015 90 285 2.0 2.0 0.00 0.00 0.00 68 1014.9
20260905145509 90 279 2.0 2.0 0.00 0.00 0.00 69 1014.9
20260905145008 88 219 0.0 1.0 0.00 0.00 0.00 71 1015.1
20260905144503 87 192 2.0 2.0 0.00 0.00 0.00 73 1015.0
20260905144002 88 236 1.0 1.0 0.00 0.00 0.00 75 1015.1
20260905143501 88 191 1.0 1.0 0.00 0.00 0.00 72 1015.0
20260905142956 87 347 2.0 2.0 0.00 0.00 0.00 73 1015.1
20260905142455 87 160 0.0 1.0 0.00 0.00 0.00 72 1015.3
20260905141951 86 250 0.0 0.0 0.00 0.00 0.00 75 1015.0
20260905141445 85 266 0.0 0.0 0.00 0.00 0.00 75 1015.1
20260905140942 86 246 1.0 1.0 0.00 0.00 0.00 78 1015.2
20260905140437 85 268 0.0 0.0 0.00 0.00 0.00 77 1015.2
20260905135935 85 210 1.0 1.0 0.00 0.00 0.00 76 1015.2
20260905135432 84 296 0.0 1.0 0.00 0.00 0.00 78 1015.3
20260905134927 84 148 2.0 2.0 0.00 0.00 0.00 78 1015.3
20260905134426 83 134 1.0 1.0 0.00 0.00 0.00 80 1015.4
20260905133920 84 205 1.0 1.0 0.00 0.00 0.00 79 1015.4
20260905133415 83 198 1.0 1.0 0.00 0.00 0.00 79 1015.5
20260905132914 83 137 0.0 0.0 0.00 0.00 0.00 79 1015.5
20260905132410 84 297 1.0 1.0 0.00 0.00 0.00 78 1015.5
20260905131910 82 207 0.0 0.0 0.00 0.00 0.00 81 1015.4
20260905131406 81 176 0.0 0.0 0.00 0.00 0.00 84 1015.4
20260905130900 79 198 0.0 0.0 0.00 0.00 0.00 87 1015.6
20260905130400 77 0 1.0 1.0 0.00 0.00 0.00 91 1015.6
20260905125855 77 256 0.0 0.0 0.00 0.00 0.00 95 1015.6
20260905125349 76 226 0.0 0.0 0.00 0.00 0.00 97 1015.6
20260905124846 76 257 0.0 0.0 0.00 0.00 0.00 98 1015.6
20260905124342 75 251 0.0 0.0 0.00 0.00 0.00 98 1015.5
20260905123841 75 229 0.0 0.0 0.00 0.00 0.00 98 1015.6
20260905123339 74 249 0.0 0.0 0.00 0.00 0.00 98 1015.5
20260905122838 74 248 0.0 0.0 0.00 0.00 0.00 98 1015.5
20260905122337 74 248 0.0 0.0 0.00 0.00 0.00 98 1015.4
20260905121833 74 237 0.0 0.0 0.00 0.00 0.00 99 1015.5
20260905121330 73 247 0.0 0.0 0.00 0.00 0.00 98 1015.4
20260905120828 73 248 0.0 0.0 0.00 0.00 0.00 99 1015.2
20260905120323 73 248 0.0 0.0 0.00 0.00 0.00 98 1015.3
20260905115818 73 248 0.0 0.0 0.00 0.00 0.00 98 1015.2
20260905115317 72 248 0.0 0.0 0.00 0.00 0.00 98 1015.5
20260905114812 72 247 0.0 0.0 0.00 0.00 0.00 98 1015.3
20260905114310 72 239 0.0 0.0 0.00 0.00 0.00 98 1015.2
20260905113809 72 261 0.0 0.0 0.00 0.00 0.00 98 1015.3
20260905113305 72 284 0.0 0.0 0.00 0.00 0.00 98 1015.2
20260905112800 72 290 0.0 0.0 0.00 0.00 0.00 98 1014.9
20260905112255 72 277 0.0 0.0 0.00 0.00 0.00 98 1014.8
20260905111750 72 253 0.0 0.0 0.00 0.00 0.00 98 1014.7
20260905111245 72 250 0.0 0.0 0.00 0.00 0.00 98 1014.7
20260905110745 72 250 0.0 0.0 0.00 0.00 0.00 98 1014.5
20260905110239 72 242 0.0 0.0 0.00 0.00 0.00 98 1014.5
20260905105734 72 237 0.0 0.0 0.00 0.00 0.00 98 1014.5
20260905105233 72 244 0.0 0.0 0.00 0.00 0.00 98 1014.5
20260905104728 72 250 0.0 0.0 0.00 0.00 0.00 98 1014.7
20260905104225 72 250 0.0 0.0 0.00 0.00 0.00 98 1014.7
20260905103719 72 250 0.0 0.0 0.00 0.00 0.00 98 1014.6
20260905103215 72 250 0.0 0.0 0.00 0.00 0.00 98 1014.4
20260905102711 72 242 0.0 0.0 0.00 0.00 0.00 98 1014.4
20260905102207 72 246 0.0 0.0 0.00 0.00 0.00 98 1014.3
20260905101706 72 265 0.0 0.0 0.00 0.00 0.00 98 1014.5